Location: Kalundborg
(55.6921°N, 11.1537°E)
Time: 18:34:55
(UTC+02:00)

X-37B - Visible Passes

Search period start: 22 April 2021 00:00
Search period end: 02 May 2021 00:00
Orbit: 380 x 394 km, 45.0° (Epoch: 07 April)

Date Brightness Start Highest point End Pass type
(mag) Time Alt. Az. Time Alt. Az. Time Alt. Az.
22 Apr 2.8 04:37:13 11° SSW 04:38:17 13° S 04:39:44 10° SSE visible
23 Apr 3.2 03:41:19 10° SSE 03:41:19 10° SSE 03:41:22 10° SSE visible
24 Apr 2.7 04:17:43 13° S 04:17:52 13° S 04:19:22 10° SSE visible
25 Apr 2.9 04:55:02 10° SSW 04:55:30 10° SSW 04:55:59 10° S visible
26 Apr 3.1 03:58:36 10° SSE 03:58:36 10° SSE 03:58:44 10° SSE visible
